#timestamp,LO_Frequency,Hit,StdDev 
1560974415.0,286046999.8,N
1560974415.9,286046999.8,N
1560974435.8,286047000.3,N
1560974455.6,286047002.4,N
1560974475.4,286047001.5,N
1560974495.3,286047002.5,N
1560974515.1,286047004.2,N
1560974516.0,286047004.2,N
1560974535.8,286047000.5,N
1560974555.7,286047000.1,N
1560974575.5,286047000.1,N
1560974595.3,286047002.0,N
1560974615.2,286047001.7,N
1560974635.9,286047002.8,N
1560974655.7,286047001.9,N
1560974675.6,286047001.7,N
1560974695.4,286047003.9,N
1560974715.2,286047001.4,N
1560974765.1,286047001.3,E
1560974775.9,286047000.3,N
1560974795.7,286046999.4,P
1560974815.6,286047000.7,N
1560974835.4,286047002.8,Y
1560974855.2,286047004.1,P
1560974875.1,286047003.5,N
1560974876.0,286047003.5,N
1560974895.8,286047005.7,Y
1560974915.6,286047002.1,P
1560974935.5,286047000.1,N
1560974955.3,286047000.4,N
1560974975.1,286046998.2,N
1560974995.9,286046998.5,N
1560975015.7,286046999.0,N
1560975035.5,286046999.1,N
1560975055.4,286046999.3,N
1560975075.2,286046999.6,N
1560975095.0,286046997.1,N
1560975095.9,286046997.1,N
1560975115.8,286046998.8,N
1560975135.6,286047000.9,N
1560975155.4,286047001.0,N
1560975175.3,286046998.3,N
1560975195.1,286047000.9,N
1560975215.8,286047000.8,N
1560975235.7,286047001.2,N
1560975255.5,286046999.3,N
1560975275.3,286046999.3,N
1560975295.2,286046999.6,N
1560975315.0,286046996.5,N
1560975315.9,286046996.5,N
1560975335.8,286046999.1,N
1560975355.6,286046997.2,N
1560975375.4,286046997.4,N
1560975395.3,286046997.0,N
1560975415.1,286046998.3,N
1560975416.0,286046998.3,N
1560975435.8,286046999.1,N
1560975455.7,286046998.4,N
1560975475.5,286046999.4,N
1560975495.3,286046999.2,N
1560975515.2,286046999.3,N
1560975535.9,286046998.7,N
1560975555.7,286046998.7,N
1560975575.6,286046999.3,N
1560975595.4,286046999.1,N
1560975615.2,286046998.4,N
1560975635.1,286046999.3,N
1560975636.0,286046999.3,N
1560975655.8,286046998.4,N
1560975675.6,286046999.6,N
1560975695.5,286046999.0,N
1560975715.3,286046999.1,N
1560975735.1,286046997.9,N
1560975755.9,286046996.7,Y
1560975775.7,286046998.9,P
1560975795.5,286046999.1,P
1560975815.4,286046999.6,P
1560975835.2,286046999.9,N
1560975855.0,286047000.4,N
1560975855.9,286047000.4,N
1560975875.8,286047000.1,N
1560975895.6,286047001.6,N
1560975915.4,286047003.7,Y
1560975935.3,286047003.2,P
1560975955.1,286047006.0,P
1560975975.8,286047005.9,N
1560975995.7,286047005.5,N
1560976015.5,286047003.6,N
1560976035.3,286047003.1,N
1560976055.2,286047003.1,N
1560976075.0,286047005.8,Y
1560976075.9,286047005.8,P
1560976095.7,286047001.6,N
1560976115.6,286047001.8,N
1560976135.4,286047002.1,N
1560976155.2,286047002.4,N
1560976175.1,286047000.4,N
1560976176.0,286047000.4,N
1560976195.8,286047000.8,N
1560976215.7,286046999.7,N
1560976235.5,286047001.0,N
1560976255.3,286046999.7,N
1560976275.2,286047000.8,N
1560976295.9,286047000.8,N
1560976315.7,286047000.3,N
1560976335.6,286046998.9,N
1560976355.4,286046999.9,N
1560976375.2,286047002.1,N
1560976395.1,286047000.0,N
1560976396.0,286047000.0,N
1560976415.8,286047001.9,N
1560976435.6,286047003.4,N
1560976455.5,286047007.4,Y
1560976475.3,286047006.9,P
1560976495.1,286047007.0,N
1560976515.9,286047005.1,N
1560976535.7,286047005.6,N
1560976555.5,286047005.9,N
1560976575.4,286047003.7,N
1560976595.2,286047003.8,N
1560976615.0,286047005.8,Y
1560976615.9,286047005.8,P
1560976635.8,286046999.7,N
1560976655.6,286046999.9,N
1560976675.4,286047002.4,N
1560976695.3,286047011.9,Y
1560976715.1,286046999.2,P
1560976735.8,286046999.2,N
1560976755.7,286046996.5,N
1560976775.5,286046999.6,N
1560976795.3,286046995.1,N
1560976815.2,286046996.5,N
1560976835.0,286046996.9,N
1560976835.9,286046996.9,N
1560976855.7,286046996.9,N
1560976875.6,286046999.1,N
1560976895.4,286046999.6,N
1560976915.2,286046998.1,N
1560976935.1,286047000.3,N
1560976936.0,286047000.3,N
1560976955.8,286046998.4,N
1560976975.6,286046998.6,N
1560976995.5,286047000.7,N
1560977015.3,286047000.7,N
1560977035.1,286047002.4,N
1560977055.9,286046999.7,N
1560977075.7,286046999.7,N
1560977095.5,286047000.0,N
1560977115.4,286047001.8,N
1560977135.2,286047002.6,N
1560977155.0,286047002.5,N
1560977155.9,286047002.5,N
1560977175.8,286047002.0,N
1560977195.6,286047002.5,N
1560977215.4,286047002.6,N
1560977235.3,286047000.4,N
1560977255.1,286047001.2,N
1560977275.8,286047001.1,N
1560977295.7,286047000.4,N
1560977315.5,286047000.3,N
1560977335.3,286046998.2,N
1560977355.2,286046999.4,N
1560977375.0,286046998.9,N
1560977375.9,286046998.9,N
1560977395.8,286046998.6,N
1560977415.6,286047001.0,N
1560977435.4,286046999.7,N
1560977455.3,286047002.5,N
1560977475.1,286047003.1,N
1560977476.0,286047003.1,N
1560977495.8,286047007.4,Y
1560977515.7,286047008.3,P
1560977535.5,286047009.5,N
1560977555.3,286047009.4,N
1560977575.2,286047010.0,N
1560977595.9,286047009.7,N
1560977615.7,286047009.9,Y
1560977635.6,286047002.7,P
1560977655.4,286047001.9,N
1560977675.2,286047002.1,N
1560977695.1,286047000.1,N
1560977696.0,286047000.1,N
1560977715.8,286046998.6,N
1560977735.6,286046999.2,N
1560977755.5,286046999.1,N
1560977775.3,286046999.5,N
1560977795.1,286046998.9,N
1560977815.9,286046998.3,N
1560977835.7,286046999.1,N
1560977855.5,286046998.8,N
1560977875.4,286046998.4,N
1560977895.2,286047002.6,N
1560977915.0,286047002.2,N
1560977915.9,286047002.2,N
1560977935.8,286047003.8,N
1560977955.6,286047001.3,N
1560977975.4,286047005.9,N
1560977995.3,286047003.2,N
